Regional Weather Roundup
Issued by NWS Green Bay, WI

Home | Current Version | Previous Version | Text Only | Print | Product List | Glossary On
Versions: 1 2 3 4 5 6 7 8 9 10 11 12 13 14 15 16 17 18 19 20 21 22 23 24 25 26 27 28 29 30 31 32 33 34 35 36 37 38 39 40 41 42 43 44 45 46 47 48 49 50
000
ASUS43 KGRB 021510
RWRGRB

NORTH-CENTRAL AND NORTHEAST WISCONSIN REGIONAL WEATHER ROUNDUP
NATIONAL WEATHER SERVICE GREEN BAY WI
900 AM CST MON MAR 02 2015

WIZ005-009-010>012-018-019-021600-
NORTH CENTRAL WISCONSIN

CITY           SKY/WX    TMP DP  RH WIND       PRES   REMARKS
IRONWOOD       SUNNY     12   7  79 SW6       30.35S WCI   3
MANITOWISH WTR SUNNY     10   4  77 CALM      30.34F
ARBOR VITAE    SUNNY     13   6  75 CALM      30.34F
EAGLE RIVER    SUNNY     13   4  69 W5        30.34S WCI   5
LAND O LAKES   FLURRIES  16   7  69 W3        30.35R
RHINELANDER    SUNNY     13   6  74 VRB3      30.35F
PHILLIPS       SUNNY      8   3  79 SW6       30.38R WCI  -2
ANTIGO         SUNNY     10   4  75 CALM      30.36F
TOMAHAWK       SUNNY     12   5  71 CALM      30.38R
MERRILL        SUNNY     12   5  72 SW6       30.41R WCI   3
$$

WIZ013-073-021600-
NORTHEAST WISCONSIN

CITY           SKY/WX    TMP DP  RH WIND       PRES   REMARKS
IRON MOUNTAIN  SUNNY     17   5  59 NW15G22   30.36S WCI   2
MARINETTE      SUNNY     19   7  58 NW7       30.43R
OCONTO         SUNNY     19   7  61 W7        30.45R WCI   9
$$

WIZ017-030-035>037-045-021600-
CENTRAL WISCONSIN

CITY           SKY/WX    TMP DP  RH WIND       PRES   REMARKS
MEDFORD        SUNNY      9   4  78 SW3       30.40R
WAUSAU         SUNNY     12   5  73 W5        30.41R WCI   4
MOSINEE          N/A     12   5  73 NW3       30.43R
MARSHFIELD     SUNNY     12   4  70 W6        30.43R WCI   3
WISC RAPIDS    SUNNY     14   5  67 NW6       30.48R WCI   5
STEVENS POINT  SUNNY     13   5  69 NW6       30.44S WCI   4
WAUPACA        SUNNY     20   8  59 N3        30.46S
SHAWANO        SUNNY     19   8  62 W3        30.44F
CLINTONVILLE   SUNNY     18   7  62 NW3       30.45R
$$

WIZ038-039-048-051-021600-
FOX VALLEY

CITY           SKY/WX    TMP DP  RH WIND       PRES   REMARKS
NWS GREEN BAY  SUNNY     19   7  59 NW8       30.44F WCI   9
APPLETON       SUNNY     16   7  67 W6        30.45R WCI   7
OSHKOSH        SUNNY     18   8  65 NW8       30.46R WCI   8
FOND DU LAC    SUNNY     18   8  65 NW8       30.47R WCI   8
$$

WIZ022-050-052-021600-
EAST CENTRAL WISCONSIN

CITY           SKY/WX    TMP DP  RH WIND       PRES   REMARKS
STURGEON BAY   SUNNY     18   5  57 NW10      30.45S WCI   6
MANITOWOC      SUNNY     21   9  59 N13       30.46R WCI   9
SHEBOYGAN      SUNNY     20   8  60 NW8       30.46R
$$

LMZ563-521-522-541>543-021600-
LAKESHORE

STATION/POSITION TIME  TEMP    WIND        PRES    VSBY  WAVE
                       AIR SEA DIR/SP/G                  HT/PER
                 (UTC) (F)     (DEG/KT/KT) (MB)    (MI)  (FT/S)
SHEBOYGAN LKSHOR 1500   20     330/  9/ 10 1033.1R
KEWAUNEE LKSHORE 1500   20     320/  7/ 11 1030.1R
NORTHPORT PIER   1500   21     290/  6/ 10 1030.1R
SISTER BAY LKSHO 1500   27     280/  9/ 10   N/A
CHAMBERS ISLAND  1500   17     210/  4/  7 1030.5R
MENOMINEE LKSHOR 1500   18     360/  7     1031.0F
$$


USA.gov is the U.S. government's official web portal to all federal, state and local government web resources and services.